Albemarle, NC

2:09 AM EDT on April 29, 2017 (GMT -0400)
Stanly County

Weather History for KVUJ - February, 2013

Change the Weather History Date:

Sunday, February 3, 2013

  Actual Average (KHBI) Record (KHBI)
Temperature  
Mean Temperature 42 °F -  
Max Temperature 52 °F 53 °F 80 °F (1989)
Min Temperature 30 °F 32 °F 13 °F (1942)
Degree Days  
Heating Degree Days 24    
Moisture  
Dew Point 28 °F    
Average Humidity 60    
Maximum Humidity 95    
Minimum Humidity 32    
Precipitation  
Precipitation 0.00 in - - ()
Sea Level Pressure  
Sea Level Pressure 29.98 in    
Wind  
Wind Speed 6 mph (West)    
Max Wind Speed 14 mph    
Max Gust Speed 30 mph    
Visibility 10 miles    
Events Thunderstorm    
Averages and records for this station are not official NWS values.
T = Trace of Precipitation, MM = Missing Value Source: NWS Daily Summary

Daily Weather History Graph

Daily Weather History Graph

Search for Another Location

Airport or City:

Trip Planner

Search our weather history database for the weather conditions in past years. The results will help you decide how hot, cold, wet, or windy it might be!

Date:

Astronomy

Feb. 03, 2013 Rise Set
Actual Time 7:18 AM EST 5:50 PM EST
Civil Twilight 6:51 AM EST 6:17 PM EST
Nautical Twilight 6:21 AM EST 6:47 PM EST
Astronomical Twilight 5:51 AM EST 7:17 PM EST
Moon 12:43 AM EST (2/3) 11:28 AM EST (2/3)
Length of Visible Light 11h 25m
Length of Day
10h 32m
Waning Gibbous, 49% of the Moon is Illuminated
Feb 3
Waning Gibbous
Feb 10
New
Feb 17
First Quarter
Feb 25
Full
Mar 4
Last Quarter

Hourly Weather History & Observations

Time (EST) Temp. Windchill Dew Point Humidity Pressure Visibility Wind Dir Wind Speed Gust Speed Precip Events Conditions
12:15 AM 41.0 °F 35.8 °F 34.7 °F 78% 30.06 in 10.0 mi WSW 8.1 mph - N/A   Overcast
12:35 AM 41.5 °F 35.4 °F 34.9 °F 77% 30.06 in 10.0 mi WSW 10.4 mph 17.3 mph N/A   Overcast
12:55 AM 41.5 °F 35.0 °F 34.9 °F 77% 30.04 in 10.0 mi WSW 11.5 mph 19.6 mph N/A   Overcast
1:15 AM 41.0 °F 34.7 °F 34.7 °F 78% 30.03 in 10.0 mi WSW 10.4 mph 21.9 mph N/A   Mostly Cloudy
1:35 AM 40.5 °F 34.1 °F 34.9 °F 80% 30.02 in 10.0 mi WSW 10.4 mph - N/A   Mostly Cloudy
1:55 AM 40.1 °F 35.3 °F 34.7 °F 81% 30.02 in 10.0 mi WSW 6.9 mph - N/A   Mostly Cloudy
2:15 AM 39.4 °F 35.2 °F 34.5 °F 83% 30.01 in 10.0 mi WSW 5.8 mph - N/A   Clear
2:35 AM 39.6 °F 37.4 °F 34.7 °F 83% 30.00 in 10.0 mi WSW 3.5 mph - N/A   Mostly Cloudy
2:55 AM 39.0 °F 35.7 °F 34.5 °F 84% 30.00 in 10.0 mi SW 4.6 mph - N/A   Overcast
3:15 AM 38.3 °F 35.9 °F 34.3 °F 86% 30.00 in 10.0 mi SW 3.5 mph - N/A   Mostly Cloudy
3:35 AM 38.7 °F 36.3 °F 34.9 °F 86% 29.99 in 10.0 mi WSW 3.5 mph - N/A   Overcast
3:55 AM 37.8 °F 35.3 °F 34.2 °F 87% 29.97 in 10.0 mi SW 3.5 mph - N/A   Mostly Cloudy
4:15 AM 35.6 °F 32.8 °F 33.1 °F 91% 29.97 in 10.0 mi SW 3.5 mph - N/A   Scattered Clouds
4:35 AM 36.0 °F 33.3 °F 33.8 °F 92% 29.97 in 10.0 mi WSW 3.5 mph - N/A   Mostly Cloudy
4:55 AM 38.1 °F 34.6 °F 34.9 °F 88% 29.97 in 10.0 mi WSW 4.6 mph - N/A   Overcast
5:15 AM 38.3 °F 33.9 °F 34.7 °F 87% 29.97 in 10.0 mi West 5.8 mph - N/A   Overcast
5:35 AM 37.8 °F - 34.7 °F 89% 29.97 in 10.0 mi Calm Calm - N/A   Overcast
5:55 AM 37.8 °F - 34.7 °F 89% 29.97 in 10.0 mi Calm Calm - N/A   Overcast
6:15 AM 37.4 °F - 34.3 °F 89% 29.98 in 10.0 mi Calm Calm - N/A   Mostly Cloudy
6:35 AM 36.3 °F - 34.0 °F 91% 29.99 in 10.0 mi North - - N/A   Scattered Clouds
6:55 AM 35.4 °F - 33.4 °F 92% 29.99 in 10.0 mi Calm Calm - N/A   Scattered Clouds
7:15 AM 34.0 °F 31.0 °F 32.7 °F 95% 29.99 in 10.0 mi WSW 3.5 mph - N/A   Scattered Clouds
7:35 AM 34.9 °F - 33.1 °F 93% 29.99 in 10.0 mi Calm Calm - N/A   Clear
7:55 AM 35.4 °F 32.6 °F 33.3 °F 92% 30.00 in 10.0 mi West 3.5 mph - N/A   Clear
8:15 AM 36.9 °F 34.3 °F 32.9 °F 86% 29.99 in 10.0 mi West 3.5 mph - N/A   Clear
8:35 AM 38.3 °F 32.5 °F 31.3 °F 76% 30.00 in 10.0 mi West 8.1 mph - N/A   Clear
8:55 AM 39.7 °F 36.5 °F 29.8 °F 68% 30.00 in 10.0 mi WNW 4.6 mph - N/A   Clear
9:15 AM 40.8 °F - 27.5 °F 59% 30.00 in 10.0 mi Calm Calm - N/A   Clear
9:35 AM 41.5 °F 35.9 °F 25.2 °F 52% 30.00 in 10.0 mi NW 9.2 mph - N/A   Clear
9:55 AM 42.3 °F 37.3 °F 24.3 °F 49% 30.00 in 10.0 mi West 8.1 mph 16.1 mph N/A   Clear
10:15 AM 42.1 °F 37.7 °F 23.9 °F 49% 30.00 in 10.0 mi WNW 6.9 mph - N/A   Clear
10:35 AM 43.2 °F 39.7 °F 24.3 °F 47% 30.00 in 10.0 mi West 5.8 mph - N/A Thunderstorm Clear
10:55 AM 45.0 °F 40.1 °F 25.3 °F 46% 30.00 in 10.0 mi West 9.2 mph - N/A   Clear
11:15 AM 46.0 °F 40.2 °F 25.0 °F 44% 29.99 in 10.0 mi SW 12.7 mph 18.4 mph N/A   Clear
11:35 AM 45.3 °F 41.1 °F 24.8 °F 45% 29.98 in 10.0 mi SW 8.1 mph - N/A   Mostly Cloudy
11:55 AM 46.8 °F - 25.3 °F 43% 29.97 in 10.0 mi SW 6.9 mph - N/A   Mostly Cloudy
12:15 PM 48.2 °F - 27.0 °F 44% 29.96 in 10.0 mi WSW 6.9 mph - N/A   Mostly Cloudy
12:35 PM 48.4 °F - 27.0 °F 43% 29.94 in 10.0 mi WSW 8.1 mph - N/A   Mostly Cloudy
12:55 PM 48.9 °F - 27.1 °F 43% 29.93 in 10.0 mi WSW 9.2 mph 16.1 mph N/A   Mostly Cloudy
1:15 PM 48.0 °F - 26.2 °F 43% 29.92 in 10.0 mi WNW 4.6 mph 16.1 mph N/A   Mostly Cloudy
1:35 PM 49.5 °F - 27.1 °F 42% 29.91 in 10.0 mi West 9.2 mph 16.1 mph N/A   Mostly Cloudy
1:55 PM 49.5 °F - 27.1 °F 42% 29.90 in 10.0 mi West 9.2 mph - N/A   Overcast
2:15 PM 50.9 °F - 27.3 °F 40% 29.89 in 10.0 mi West 10.4 mph - N/A   Mostly Cloudy
2:35 PM 51.4 °F - 26.4 °F 38% 29.89 in 10.0 mi West 11.5 mph 18.4 mph N/A   Mostly Cloudy
2:55 PM 50.2 °F - 24.6 °F 37% 29.90 in 10.0 mi WNW 11.5 mph 23.0 mph N/A   Scattered Clouds
3:15 PM 51.6 °F - 24.8 °F 35% 29.90 in 10.0 mi WNW 10.4 mph 21.9 mph N/A   Scattered Clouds
3:35 PM 52.2 °F - 24.3 °F 34% 29.91 in 10.0 mi WNW 13.8 mph 20.7 mph N/A   Scattered Clouds
3:55 PM 51.8 °F - 23.5 °F 33% 29.91 in 10.0 mi West 12.7 mph 29.9 mph N/A   Scattered Clouds
4:15 PM 51.3 °F - 22.1 °F 32% 29.91 in 10.0 mi NW 12.7 mph 26.5 mph N/A   Clear
4:35 PM 51.3 °F - 23.2 °F 33% 29.92 in 10.0 mi NW 5.8 mph 21.9 mph N/A   Scattered Clouds
4:55 PM 50.9 °F - 23.7 °F 35% 29.93 in 10.0 mi West 10.4 mph 19.6 mph N/A   Clear
5:15 PM 50.0 °F - 24.1 °F 36% 29.94 in 10.0 mi NW 9.2 mph 18.4 mph N/A   Clear
5:35 PM 48.2 °F - 24.8 °F 40% 29.95 in 10.0 mi NNW 4.6 mph - N/A   Clear
5:55 PM 47.5 °F - 24.4 °F 41% 29.96 in 10.0 mi NW 6.9 mph - N/A   Clear
6:15 PM 46.8 °F - 23.7 °F 40% 29.96 in 10.0 mi NW 5.8 mph - N/A   Clear
6:35 PM 45.7 °F 44.4 °F 23.4 °F 41% 29.97 in 10.0 mi NW 3.5 mph - N/A   Clear
6:55 PM 44.6 °F 43.1 °F 24.1 °F 44% 29.98 in 10.0 mi NW 3.5 mph - N/A   Clear
7:15 PM 41.9 °F - 24.6 °F 50% 29.99 in 10.0 mi Calm Calm - N/A   Clear
7:35 PM 40.6 °F - 24.4 °F 53% 30.00 in 10.0 mi Calm Calm - N/A   Clear
7:55 PM 42.3 °F 37.9 °F 23.0 °F 47% 30.00 in 10.0 mi WNW 6.9 mph - N/A   Clear
8:15 PM 42.1 °F 40.2 °F 21.9 °F 45% 30.01 in 10.0 mi NW 3.5 mph - N/A   Clear
8:35 PM 41.7 °F - 21.2 °F 44% 30.02 in 10.0 mi Calm Calm - N/A   Clear
8:55 PM 40.6 °F 37.5 °F 21.4 °F 46% 30.02 in 10.0 mi NW 4.6 mph - N/A   Clear
9:15 PM 40.3 °F 38.2 °F 21.0 °F 46% 30.02 in 10.0 mi WNW 3.5 mph - N/A   Clear
9:35 PM 39.9 °F - 20.5 °F 46% 30.03 in 10.0 mi Calm Calm - N/A   Clear
9:55 PM 34.9 °F - 22.1 °F 60% 30.04 in 10.0 mi North - - N/A   Clear
10:15 PM 39.2 °F 37.0 °F 21.0 °F 48% 30.03 in 10.0 mi WNW 3.5 mph - N/A   Clear
10:35 PM 35.2 °F 32.4 °F 21.2 °F 57% 30.04 in 10.0 mi SSE 3.5 mph - N/A   Clear
10:55 PM 33.6 °F 29.4 °F 22.6 °F 64% 30.03 in 10.0 mi NNW 4.6 mph - N/A   Clear
11:15 PM 34.5 °F - 21.7 °F 60% 30.04 in 10.0 mi Calm Calm - N/A   Clear
11:35 PM 31.8 °F - 23.0 °F 70% 30.04 in 10.0 mi Calm Calm - N/A   Clear
11:55 PM 30.9 °F - 22.6 °F 71% 30.05 in 10.0 mi Calm Calm - N/A   Clear